Time,TemperatureF,DewpointF,PressureIn,WindDirection,WindDirectionDegrees,WindSpeedMPH,WindSpeedGustMPH,Humidity,HourlyPrecipIn,Conditions,Clouds,dailyrainin,SoftwareType,DateUTC
2013-06-04 00:00:00,47.0,45.8,29.82,NE,53,9.0,17.0,96,0.11,,,0.65,VWS V14.01,2013-06-04 05:00:00,
2013-06-04 00:02:00,47.2,46.0,29.82,NE,55,9.0,14.0,96,0.01,,,0.00,VWS V14.01,2013-06-04 05:02:00,
2013-06-04 00:06:00,47.2,46.0,29.82,ENE,58,5.0,18.0,96,0.01,,,0.00,VWS V14.01,2013-06-04 05:06:00,
2013-06-04 00:11:00,47.1,45.9,29.82,ENE,63,12.0,18.0,96,0.01,,,0.00,VWS V14.01,2013-06-04 05:11:00,
2013-06-04 00:15:00,47.0,45.8,29.82,ENE,57,9.0,19.0,96,0.09,,,0.65,VWS V14.01,2013-06-04 05:15:00,
2013-06-04 00:16:00,47.1,45.9,29.82,NE,40,8.0,12.0,96,0.01,,,0.00,VWS V14.01,2013-06-04 05:16:00,
2013-06-04 00:21:00,47.1,45.9,29.82,North,5,5.0,16.0,96,0.01,,,0.00,VWS V14.01,2013-06-04 05:21:00,
2013-06-04 00:26:00,47.0,45.8,29.81,NE,42,4.0,16.0,96,0.01,,,0.00,VWS V14.01,2013-06-04 05:26:00,
2013-06-04 00:30:00,47.1,45.9,29.82,NE,49,4.0,19.0,96,0.06,,,0.66,VWS V14.01,2013-06-04 05:30:00,
2013-06-04 00:31:00,47.0,45.8,29.81,ENE,78,7.0,16.0,96,0.00,,,0.00,VWS V14.01,2013-06-04 05:31:00,
2013-06-04 00:36:00,47.0,45.8,29.81,NE,47,10.0,16.0,96,0.00,,,0.00,VWS V14.01,2013-06-04 05:36:00,
2013-06-04 00:41:00,46.9,45.7,29.82,ENE,57,8.0,16.0,96,0.00,,,0.00,VWS V14.01,2013-06-04 05:41:00,
2013-06-04 00:45:00,47.2,46.0,29.82,NE,46,7.0,17.0,96,0.02,,,0.66,VWS V14.01,2013-06-04 05:45:00,
2013-06-04 00:47:00,46.9,45.7,29.82,ENE,63,10.0,16.0,96,0.00,,,0.00,VWS V14.01,2013-06-04 05:47:00,
2013-06-04 00:52:00,46.9,45.7,29.81,NE,51,9.0,16.0,96,0.00,,,0.00,VWS V14.01,2013-06-04 05:52:00,
2013-06-04 00:57:00,46.9,45.7,29.81,NE,51,5.0,18.0,96,0.00,,,0.00,VWS V14.01,2013-06-04 05:57:00,
2013-06-04 01:00:00,47.2,46.0,29.82,NE,47,7.0,20.0,96,0.01,,,0.66,VWS V14.01,2013-06-04 06:00:00,
2013-06-04 01:02:00,46.9,45.7,29.82,NE,36,3.0,13.0,96,0.00,,,0.00,VWS V14.01,2013-06-04 06:02:00,
2013-06-04 01:07:00,46.8,45.6,29.82,ENE,62,5.0,20.0,96,0.00,,,0.00,VWS V14.01,2013-06-04 06:07:00,
2013-06-04 01:12:00,46.8,45.6,29.82,NE,34,5.0,20.0,96,0.00,,,0.00,VWS V14.01,2013-06-04 06:12:00,
2013-06-04 01:15:00,47.1,45.9,29.82,NE,41,9.0,18.0,96,0.01,,,0.00,VWS V14.01,2013-06-04 06:15:00,
2013-06-04 01:17:00,46.8,45.6,29.82,ENE,59,5.0,16.0,96,0.00,,,0.00,VWS V14.01,2013-06-04 06:17:00,
2013-06-04 01:22:00,46.8,45.6,29.82,NE,47,8.0,17.0,96,0.00,,,0.00,VWS V14.01,2013-06-04 06:22:00,
2013-06-04 01:27:00,46.7,45.5,29.81,ENE,72,16.0,17.0,96,0.00,,,0.00,VWS V14.01,2013-06-04 06:27:00,
2013-06-04 01:30:00,47.0,45.8,29.81,NE,51,9.0,16.0,96,0.01,,,0.00,VWS V14.01,2013-06-04 06:30:00,
2013-06-04 01:32:00,46.7,45.5,29.81,ENE,70,17.0,17.0,96,0.00,,,0.00,VWS V14.01,2013-06-04 06:32:00,
2013-06-04 01:37:00,46.7,45.5,29.81,NE,53,6.0,20.0,96,0.00,,,0.00,VWS V14.01,2013-06-04 06:37:00,
2013-06-04 01:42:00,46.7,45.5,29.81,NE,46,3.0,20.0,96,0.00,,,0.00,VWS V14.01,2013-06-04 06:42:00,
2013-06-04 01:45:00,46.9,45.7,29.81,NE,38,11.0,16.0,96,0.00,,,0.00,VWS V14.01,2013-06-04 06:45:00,
2013-06-04 01:47:00,46.6,45.4,29.81,ENE,59,7.0,19.0,96,0.00,,,0.00,VWS V14.01,2013-06-04 06:47:00,
2013-06-04 01:52:00,46.6,45.4,29.81,NE,50,7.0,19.0,96,0.00,,,0.00,VWS V14.01,2013-06-04 06:52:00,
2013-06-04 01:57:00,46.6,45.4,29.81,ENE,60,9.0,19.0,96,0.00,,,0.00,VWS V14.01,2013-06-04 06:57:00,
2013-06-04 02:00:00,46.8,45.6,29.81,NE,45,5.0,19.0,96,0.00,,,0.00,VWS V14.01,2013-06-04 07:00:00,
2013-06-04 02:02:00,46.6,45.2,29.81,ENE,66,16.0,17.0,95,0.01,,,0.01,VWS V14.01,2013-06-04 07:02:00,
2013-06-04 02:07:00,46.5,45.1,29.81,NE,51,6.0,22.0,95,0.02,,,0.02,VWS V14.01,2013-06-04 07:07:00,
2013-06-04 02:12:00,46.5,45.1,29.81,NE,52,6.0,22.0,95,0.02,,,0.02,VWS V14.01,2013-06-04 07:12:00,
2013-06-04 02:15:00,46.8,45.6,29.81,ENE,64,16.0,20.0,96,0.00,,,0.00,VWS V14.01,2013-06-04 07:15:00,
2013-06-04 02:17:00,46.5,45.1,29.81,East,99,11.0,15.0,95,0.03,,,0.03,VWS V14.01,2013-06-04 07:17:00,
2013-06-04 02:22:00,46.5,45.1,29.81,ENE,69,8.0,24.0,95,0.03,,,0.03,VWS V14.01,2013-06-04 07:22:00,
2013-06-04 02:27:00,46.5,45.1,29.81,NNE,26,6.0,24.0,95,0.03,,,0.03,VWS V14.01,2013-06-04 07:27:00,
2013-06-04 02:30:00,46.8,45.6,29.81,NE,42,9.0,17.0,96,0.00,,,0.00,VWS V14.01,2013-06-04 07:30:00,
2013-06-04 02:32:00,46.5,45.1,29.81,ENE,64,11.0,11.0,95,0.03,,,0.03,VWS V14.01,2013-06-04 07:32:00,
2013-06-04 02:37:00,46.5,45.1,29.81,NE,44,6.0,17.0,95,0.03,,,0.03,VWS V14.01,2013-06-04 07:37:00,
2013-06-04 02:42:00,46.4,45.0,29.81,ENE,67,8.0,17.0,95,0.03,,,0.03,VWS V14.01,2013-06-04 07:42:00,
2013-06-04 02:45:00,46.6,45.4,29.81,NE,50,5.0,20.0,96,0.00,,,0.00,VWS V14.01,2013-06-04 07:45:00,
2013-06-04 02:47:00,46.4,45.0,29.81,ENE,57,10.0,16.0,95,0.03,,,0.03,VWS V14.01,2013-06-04 07:47:00,
2013-06-04 02:52:00,46.3,44.9,29.81,ENE,63,8.0,16.0,95,0.03,,,0.03,VWS V14.01,2013-06-04 07:52:00,
2013-06-04 02:57:00,46.3,44.9,29.81,ENE,61,5.0,18.0,95,0.04,,,0.04,VWS V14.01,2013-06-04 07:57:00,
2013-06-04 03:00:00,46.6,45.2,29.81,NE,53,7.0,19.0,95,0.01,,,0.01,VWS V14.01,2013-06-04 08:00:00,
2013-06-04 03:02:00,46.3,44.9,29.80,NE,40,2.0,10.0,95,0.03,,,0.04,VWS V14.01,2013-06-04 08:02:00,
2013-06-04 03:07:00,46.2,44.8,29.80,NE,49,7.0,13.0,95,0.03,,,0.04,VWS V14.01,2013-06-04 08:07:00,
2013-06-04 03:12:00,46.2,44.8,29.81,ENE,61,4.0,17.0,95,0.03,,,0.04,VWS V14.01,2013-06-04 08:12:00,
2013-06-04 03:15:00,46.5,45.1,29.81,ENE,71,9.0,22.0,95,0.02,,,0.02,VWS V14.01,2013-06-04 08:15:00,
2013-06-04 03:17:00,46.2,44.8,29.81,NNE,20,4.0,14.0,95,0.02,,,0.04,VWS V14.01,2013-06-04 08:17:00,
2013-06-04 03:22:00,46.2,44.8,29.81,NNE,33,8.0,16.0,95,0.02,,,0.04,VWS V14.01,2013-06-04 08:22:00,
2013-06-04 03:27:00,46.1,44.7,29.81,NE,41,5.0,16.0,95,0.02,,,0.04,VWS V14.01,2013-06-04 08:27:00,
2013-06-04 03:30:00,46.5,45.1,29.81,NE,35,5.0,24.0,95,0.03,,,0.03,VWS V14.01,2013-06-04 08:30:00,
2013-06-04 03:32:00,46.1,44.7,29.81,NNE,24,6.0,16.0,95,0.01,,,0.04,VWS V14.01,2013-06-04 08:32:00,
2013-06-04 03:37:00,46.3,44.9,29.81,East,94,7.0,16.0,95,0.01,,,0.04,VWS V14.01,2013-06-04 08:37:00,
2013-06-04 03:42:00,46.4,45.0,29.81,NE,46,6.0,16.0,95,0.01,,,0.04,VWS V14.01,2013-06-04 08:42:00,
2013-06-04 03:45:00,46.4,45.0,29.80,ENE,74,11.0,17.0,95,0.03,,,0.03,VWS V14.01,2013-06-04 08:45:00,
2013-06-04 03:47:00,46.4,45.0,29.81,NE,38,4.0,14.0,95,0.01,,,0.04,VWS V14.01,2013-06-04 08:47:00,
2013-06-04 03:52:00,46.3,44.9,29.81,ENE,65,7.0,14.0,95,0.01,,,0.04,VWS V14.01,2013-06-04 08:52:00,
2013-06-04 03:57:00,46.3,44.9,29.81,ENE,65,3.0,14.0,95,0.01,,,0.04,VWS V14.01,2013-06-04 08:57:00,
2013-06-04 04:00:00,46.3,44.9,29.80,NE,54,6.0,18.0,95,0.04,,,0.04,VWS V14.01,2013-06-04 09:00:00,
2013-06-04 04:02:00,46.3,44.9,29.81,NE,44,3.0,8.0,95,0.00,,,0.04,VWS V14.01,2013-06-04 09:02:00,
2013-06-04 04:07:00,46.3,44.9,29.80,ENE,62,8.0,14.0,95,0.00,,,0.04,VWS V14.01,2013-06-04 09:07:00,
2013-06-04 04:12:00,46.2,44.8,29.80,NE,41,4.0,14.0,95,0.00,,,0.04,VWS V14.01,2013-06-04 09:12:00,
2013-06-04 04:15:00,46.1,44.7,29.81,ENE,76,4.0,17.0,95,0.03,,,0.04,VWS V14.01,2013-06-04 09:15:00,
2013-06-04 04:17:00,46.3,44.9,29.80,NE,53,6.0,8.0,95,0.00,,,0.04,VWS V14.01,2013-06-04 09:17:00,
2013-06-04 04:22:00,46.3,44.9,29.80,NE,55,6.0,14.0,95,0.00,,,0.04,VWS V14.01,2013-06-04 09:22:00,
2013-06-04 04:27:00,46.3,44.9,29.80,ENE,63,5.0,16.0,95,0.00,,,0.04,VWS V14.01,2013-06-04 09:27:00,
2013-06-04 04:30:00,46.1,44.7,29.81,NE,54,7.0,16.0,95,0.02,,,0.04,VWS V14.01,2013-06-04 09:30:00,
2013-06-04 04:32:00,46.4,45.0,29.80,NE,56,6.0,10.0,95,0.00,,,0.04,VWS V14.01,2013-06-04 09:32:00,
2013-06-04 04:37:00,46.4,44.7,29.80,NE,55,8.0,14.0,94,0.00,,,0.04,VWS V14.01,2013-06-04 09:37:00,
2013-06-04 04:42:00,46.5,44.8,29.80,ENE,68,9.0,14.0,94,0.00,,,0.04,VWS V14.01,2013-06-04 09:42:00,
2013-06-04 04:45:00,46.4,45.0,29.81,NNE,33,9.0,16.0,95,0.01,,,0.04,VWS V14.01,2013-06-04 09:45:00,
2013-06-04 04:47:00,46.5,44.8,29.80,ENE,67,10.0,18.0,94,0.00,,,0.04,VWS V14.01,2013-06-04 09:47:00,
2013-06-04 04:52:00,46.5,44.8,29.80,NE,35,8.0,18.0,94,0.00,,,0.04,VWS V14.01,2013-06-04 09:52:00,
2013-06-04 04:57:00,46.5,44.8,29.80,NNE,32,5.0,18.0,94,0.00,,,0.04,VWS V14.01,2013-06-04 09:57:00,
2013-06-04 05:00:00,46.3,44.9,29.81,NNE,30,4.0,14.0,95,0.01,,,0.04,VWS V14.01,2013-06-04 10:00:00,
2013-06-04 05:02:00,46.4,44.7,29.80,East,80,8.0,13.0,94,0.01,,,0.05,VWS V14.01,2013-06-04 10:02:00,
2013-06-04 05:07:00,46.4,45.0,29.80,NE,46,3.0,13.0,95,0.01,,,0.05,VWS V14.01,2013-06-04 10:07:00,
2013-06-04 05:12:00,46.4,45.0,29.80,NE,36,3.0,13.0,95,0.01,,,0.05,VWS V14.01,2013-06-04 10:12:00,
2013-06-04 05:15:00,46.3,44.9,29.80,ENE,61,5.0,14.0,95,0.00,,,0.04,VWS V14.01,2013-06-04 10:15:00,
2013-06-04 05:17:00,46.4,45.0,29.80,NE,53,7.0,9.0,95,0.01,,,0.05,VWS V14.01,2013-06-04 10:17:00,
2013-06-04 05:22:00,46.4,45.0,29.80,NE,43,5.0,10.0,95,0.01,,,0.05,VWS V14.01,2013-06-04 10:22:00,
2013-06-04 05:27:00,46.4,45.0,29.80,NE,49,13.0,13.0,95,0.01,,,0.05,VWS V14.01,2013-06-04 10:27:00,
2013-06-04 05:30:00,46.4,45.0,29.80,North,355,3.0,16.0,95,0.00,,,0.04,VWS V14.01,2013-06-04 10:30:00,
2013-06-04 05:32:00,46.5,45.1,29.79,NE,42,5.0,11.0,95,0.01,,,0.05,VWS V14.01,2013-06-04 10:32:00,
2013-06-04 05:37:00,46.6,45.2,29.79,East,89,3.0,13.0,95,0.01,,,0.05,VWS V14.01,2013-06-04 10:37:00,
2013-06-04 05:42:00,46.7,45.3,29.80,ENE,76,9.0,14.0,95,0.01,,,0.05,VWS V14.01,2013-06-04 10:42:00,
2013-06-04 05:45:00,46.5,44.8,29.80,NE,39,10.0,14.0,94,0.00,,,0.04,VWS V14.01,2013-06-04 10:45:00,
2013-06-04 05:47:00,46.8,45.4,29.79,NE,52,4.0,10.0,95,0.01,,,0.05,VWS V14.01,2013-06-04 10:47:00,
2013-06-04 05:52:00,47.0,45.3,29.79,NNE,24,6.0,12.0,94,0.01,,,0.05,VWS V14.01,2013-06-04 10:52:00,
2013-06-04 05:57:00,47.0,45.3,29.79,NE,49,5.0,13.0,94,0.01,,,0.05,VWS V14.01,2013-06-04 10:57:00,
2013-06-04 06:00:00,46.5,44.8,29.80,ENE,63,13.0,18.0,94,0.00,,,0.04,VWS V14.01,2013-06-04 11:00:00,
2013-06-04 06:02:00,47.0,45.3,29.79,NE,37,8.0,9.0,94,0.01,,,0.05,VWS V14.01,2013-06-04 11:02:00,
2013-06-04 06:07:00,47.0,45.3,29.80,NE,53,4.0,12.0,94,0.01,,,0.05,VWS V14.01,2013-06-04 11:07:00,
2013-06-04 06:12:00,47.1,45.7,29.80,ENE,67,8.0,14.0,95,0.01,,,0.05,VWS V14.01,2013-06-04 11:12:00,
2013-06-04 06:15:00,46.4,45.0,29.80,NE,39,4.0,13.0,95,0.01,,,0.05,VWS V14.01,2013-06-04 11:15:00,
2013-06-04 06:17:00,47.1,45.7,29.80,NE,44,7.0,9.0,95,0.01,,,0.06,VWS V14.01,2013-06-04 11:17:00,
2013-06-04 06:22:00,47.1,45.7,29.80,NE,40,9.0,10.0,95,0.01,,,0.06,VWS V14.01,2013-06-04 11:22:00,
2013-06-04 06:27:00,47.0,45.6,29.80,North,5,5.0,10.0,95,0.02,,,0.07,VWS V14.01,2013-06-04 11:27:00,
2013-06-04 06:30:00,46.5,45.1,29.79,NE,38,7.0,15.0,95,0.01,,,0.05,VWS V14.01,2013-06-04 11:30:00,
2013-06-04 06:32:00,47.0,45.6,29.80,NE,35,2.0,7.0,95,0.02,,,0.07,VWS V14.01,2013-06-04 11:32:00,
2013-06-04 06:37:00,47.0,45.6,29.80,NE,34,4.0,9.0,95,0.03,,,0.08,VWS V14.01,2013-06-04 11:37:00,
2013-06-04 06:42:00,47.0,45.6,29.80,NNE,19,2.0,9.0,95,0.03,,,0.08,VWS V14.01,2013-06-04 11:42:00,
2013-06-04 06:45:00,46.8,45.4,29.79,NE,41,10.0,14.0,95,0.01,,,0.05,VWS V14.01,2013-06-04 11:45:00,
2013-06-04 06:47:00,47.0,45.6,29.80,NE,46,4.0,6.0,95,0.03,,,0.08,VWS V14.01,2013-06-04 11:47:00,
2013-06-04 06:52:00,47.0,45.6,29.80,NNE,30,3.0,9.0,95,0.04,,,0.09,VWS V14.01,2013-06-04 11:52:00,
2013-06-04 06:57:00,47.0,45.8,29.80,ENE,72,9.0,12.0,96,0.05,,,0.10,VWS V14.01,2013-06-04 11:57:00,
2013-06-04 07:00:00,47.0,45.3,29.79,East,80,7.0,13.0,94,0.01,,,0.05,VWS V14.01,2013-06-04 12:00:00,
2013-06-04 07:02:00,47.1,45.9,29.80,NE,42,7.0,7.0,96,0.05,,,0.10,VWS V14.01,2013-06-04 12:02:00,
2013-06-04 07:07:00,47.1,45.9,29.81,NNE,30,5.0,18.0,96,0.05,,,0.10,VWS V14.01,2013-06-04 12:07:00,
2013-06-04 07:12:00,47.2,46.0,29.81,NE,41,4.0,18.0,96,0.06,,,0.11,VWS V14.01,2013-06-04 12:12:00,
2013-06-04 07:15:00,47.1,45.7,29.80,NE,55,5.0,14.0,95,0.02,,,0.06,VWS V14.01,2013-06-04 12:15:00,
2013-06-04 07:17:00,47.2,46.0,29.81,NE,43,7.0,11.0,96,0.06,,,0.12,VWS V14.01,2013-06-04 12:17:00,
2013-06-04 07:22:00,47.2,46.0,29.81,NE,40,1.0,13.0,96,0.07,,,0.13,VWS V14.01,2013-06-04 12:22:00,
2013-06-04 07:27:00,47.2,46.0,29.81,ENE,76,8.0,13.0,96,0.08,,,0.14,VWS V14.01,2013-06-04 12:27:00,
2013-06-04 07:30:00,47.0,45.6,29.80,ENE,62,2.0,10.0,95,0.02,,,0.07,VWS V14.01,2013-06-04 12:30:00,
2013-06-04 07:32:00,47.2,46.0,29.81,NE,42,2.0,14.0,96,0.08,,,0.15,VWS V14.01,2013-06-04 12:32:00,
2013-06-04 07:37:00,47.2,46.0,29.81,NE,52,7.0,14.0,96,0.09,,,0.16,VWS V14.01,2013-06-04 12:37:00,
2013-06-04 07:42:00,47.2,46.0,29.81,NE,46,6.0,14.0,96,0.10,,,0.17,VWS V14.01,2013-06-04 12:42:00,
2013-06-04 07:45:00,47.0,45.6,29.80,NE,55,5.0,9.0,95,0.03,,,0.08,VWS V14.01,2013-06-04 12:45:00,
2013-06-04 07:47:00,47.2,46.0,29.81,NE,51,8.0,11.0,96,0.11,,,0.19,VWS V14.01,2013-06-04 12:47:00,
2013-06-04 07:52:00,47.2,46.0,29.81,NE,43,6.0,12.0,96,0.13,,,0.21,VWS V14.01,2013-06-04 12:52:00,
2013-06-04 07:57:00,47.2,46.0,29.81,NNE,15,6.0,13.0,96,0.14,,,0.22,VWS V14.01,2013-06-04 12:57:00,
2013-06-04 08:00:00,47.0,45.8,29.80,NE,38,4.0,12.0,96,0.05,,,0.10,VWS V14.01,2013-06-04 13:00:00,
2013-06-04 08:02:00,47.2,46.0,29.81,ENE,59,12.0,16.0,96,0.14,,,0.24,VWS V14.01,2013-06-04 13:02:00,
2013-06-04 08:07:00,47.1,45.9,29.81,NNE,28,10.0,19.0,96,0.15,,,0.25,VWS V14.01,2013-06-04 13:07:00,
2013-06-04 08:12:00,47.1,45.9,29.81,ENE,61,9.0,19.0,96,0.16,,,0.26,VWS V14.01,2013-06-04 13:12:00,
2013-06-04 08:15:00,47.2,46.0,29.81,NE,48,7.0,18.0,96,0.06,,,0.11,VWS V14.01,2013-06-04 13:15:00,
2013-06-04 08:17:00,47.1,45.9,29.81,NNE,30,4.0,11.0,96,0.16,,,0.27,VWS V14.01,2013-06-04 13:17:00,
2013-06-04 08:22:00,47.1,45.9,29.81,NE,49,7.0,13.0,96,0.17,,,0.28,VWS V14.01,2013-06-04 13:22:00,
2013-06-04 08:27:00,47.1,45.9,29.82,NNE,32,4.0,17.0,96,0.18,,,0.29,VWS V14.01,2013-06-04 13:27:00,
2013-06-04 08:30:00,47.2,46.0,29.81,NE,36,5.0,14.0,96,0.08,,,0.14,VWS V14.01,2013-06-04 13:30:00,
2013-06-04 08:32:00,47.1,45.9,29.82,NE,46,10.0,13.0,96,0.17,,,0.31,VWS V14.01,2013-06-04 13:32:00,
2013-06-04 08:37:00,47.0,45.8,29.82,NE,39,8.0,14.0,96,0.18,,,0.32,VWS V14.01,2013-06-04 13:37:00,
2013-06-04 08:42:00,47.0,45.8,29.82,NE,46,2.0,14.0,96,0.20,,,0.34,VWS V14.01,2013-06-04 13:42:00,
2013-06-04 08:45:00,47.2,46.0,29.81,ENE,77,7.0,14.0,96,0.11,,,0.18,VWS V14.01,2013-06-04 13:45:00,
2013-06-04 08:47:00,47.1,45.9,29.82,NE,49,5.0,10.0,96,0.17,,,0.35,VWS V14.01,2013-06-04 13:47:00,
2013-06-04 08:52:00,47.1,45.9,29.82,ENE,57,3.0,15.0,96,0.18,,,0.36,VWS V14.01,2013-06-04 13:52:00,
2013-06-04 08:57:00,47.2,46.0,29.82,NNE,17,6.0,15.0,96,0.18,,,0.36,VWS V14.01,2013-06-04 13:57:00,
2013-06-04 09:00:00,47.1,45.9,29.81,NE,42,8.0,13.0,96,0.16,,,0.24,VWS V14.01,2013-06-04 14:00:00,
2013-06-04 09:02:00,47.2,46.3,29.82,NE,39,4.0,10.0,97,0.12,,,0.36,VWS V14.01,2013-06-04 14:02:00,
2013-06-04 09:07:00,47.3,46.4,29.82,ENE,61,5.0,11.0,97,0.13,,,0.37,VWS V14.01,2013-06-04 14:07:00,
2013-06-04 09:12:00,47.3,46.4,29.82,NE,46,7.0,12.0,97,0.13,,,0.37,VWS V14.01,2013-06-04 14:12:00,
2013-06-04 09:15:00,47.1,45.9,29.81,ENE,59,4.0,19.0,96,0.16,,,0.26,VWS V14.01,2013-06-04 14:15:00,
2013-06-04 09:17:00,47.4,46.5,29.82,NE,45,8.0,10.0,97,0.11,,,0.37,VWS V14.01,2013-06-04 14:17:00,
2013-06-04 09:22:00,47.4,46.5,29.82,NE,48,5.0,13.0,97,0.12,,,0.38,VWS V14.01,2013-06-04 14:22:00,
2013-06-04 09:27:00,47.5,46.6,29.82,NNE,23,4.0,19.0,97,0.12,,,0.38,VWS V14.01,2013-06-04 14:27:00,
2013-06-04 09:30:00,47.0,45.8,29.81,NE,47,8.0,17.0,96,0.19,,,0.30,VWS V14.01,2013-06-04 14:30:00,
2013-06-04 09:32:00,47.5,46.6,29.82,ENE,61,4.0,10.0,97,0.08,,,0.38,VWS V14.01,2013-06-04 14:32:00,
2013-06-04 09:37:00,47.5,46.6,29.82,ENE,78,16.0,16.0,97,0.08,,,0.38,VWS V14.01,2013-06-04 14:37:00,
2013-06-04 09:42:00,47.6,46.7,29.82,NE,34,7.0,16.0,97,0.08,,,0.38,VWS V14.01,2013-06-04 14:42:00,
2013-06-04 09:45:00,47.1,45.9,29.82,NNE,20,3.0,14.0,96,0.21,,,0.35,VWS V14.01,2013-06-04 14:45:00,
2013-06-04 09:47:00,47.6,46.7,29.82,NE,49,7.0,10.0,97,0.03,,,0.38,VWS V14.01,2013-06-04 14:47:00,
2013-06-04 09:52:00,47.6,46.7,29.82,NE,36,0.0,10.0,97,0.03,,,0.38,VWS V14.01,2013-06-04 14:52:00,
2013-06-04 09:57:00,47.6,46.7,29.82,NE,39,12.0,17.0,97,0.04,,,0.39,VWS V14.01,2013-06-04 14:57:00,
2013-06-04 10:00:00,47.2,46.3,29.82,NNE,30,6.0,15.0,97,0.18,,,0.36,VWS V14.01,2013-06-04 15:00:00,
2013-06-04 10:02:00,47.5,46.6,29.82,North,5,3.0,12.0,97,0.03,,,0.39,VWS V14.01,2013-06-04 15:02:00,
2013-06-04 10:07:00,47.6,46.7,29.82,NE,42,4.0,12.0,97,0.03,,,0.39,VWS V14.01,2013-06-04 15:07:00,
2013-06-04 10:12:00,47.6,46.7,29.82,NNE,33,3.0,13.0,97,0.04,,,0.40,VWS V14.01,2013-06-04 15:12:00,
2013-06-04 10:15:00,47.4,46.5,29.82,ENE,57,7.0,12.0,97,0.13,,,0.37,VWS V14.01,2013-06-04 15:15:00,
2013-06-04 10:17:00,47.6,46.7,29.83,NE,45,5.0,13.0,97,0.03,,,0.40,VWS V14.01,2013-06-04 15:17:00,
2013-06-04 10:22:00,47.6,46.7,29.83,NE,49,5.0,13.0,97,0.03,,,0.40,VWS V14.01,2013-06-04 15:22:00,
2013-06-04 10:27:00,47.7,46.8,29.83,NNE,15,2.0,13.0,97,0.03,,,0.40,VWS V14.01,2013-06-04 15:27:00,
2013-06-04 10:30:00,47.5,46.6,29.82,ENE,73,8.0,19.0,97,0.12,,,0.38,VWS V14.01,2013-06-04 15:30:00,
2013-06-04 10:32:00,47.7,46.8,29.83,NE,52,10.0,14.0,97,0.03,,,0.41,VWS V14.01,2013-06-04 15:32:00,
2013-06-04 10:37:00,47.7,46.8,29.82,East,82,16.0,16.0,97,0.03,,,0.41,VWS V14.01,2013-06-04 15:37:00,
2013-06-04 10:42:00,47.8,46.9,29.83,NE,55,5.0,16.0,97,0.03,,,0.41,VWS V14.01,2013-06-04 15:42:00,
2013-06-04 10:45:00,47.6,46.7,29.82,ENE,57,8.0,16.0,97,0.08,,,0.38,VWS V14.01,2013-06-04 15:45:00,
2013-06-04 10:47:00,47.8,46.9,29.82,NE,44,4.0,13.0,97,0.04,,,0.42,VWS V14.01,2013-06-04 15:47:00,
2013-06-04 10:52:00,47.8,46.9,29.83,NNE,32,4.0,16.0,97,0.05,,,0.43,VWS V14.01,2013-06-04 15:52:00,
2013-06-04 10:57:00,47.8,46.9,29.83,ENE,59,9.0,16.0,97,0.05,,,0.43,VWS V14.01,2013-06-04 15:57:00,
2013-06-04 11:00:00,47.5,46.6,29.82,NNE,18,6.0,17.0,97,0.04,,,0.39,VWS V14.01,2013-06-04 16:00:00,
2013-06-04 11:02:00,47.8,46.9,29.83,NE,39,6.0,10.0,97,0.04,,,0.43,VWS V14.01,2013-06-04 16:02:00,
2013-06-04 11:07:00,47.9,47.0,29.83,NE,55,3.0,16.0,97,0.04,,,0.43,VWS V14.01,2013-06-04 16:07:00,
2013-06-04 11:12:00,48.0,47.1,29.83,NE,51,5.0,16.0,97,0.05,,,0.44,VWS V14.01,2013-06-04 16:12:00,
2013-06-04 11:15:00,47.6,46.7,29.83,NNE,26,3.0,13.0,97,0.04,,,0.40,VWS V14.01,2013-06-04 16:15:00,
2013-06-04 11:17:00,47.9,47.0,29.83,NE,38,4.0,11.0,97,0.04,,,0.44,VWS V14.01,2013-06-04 16:17:00,
2013-06-04 11:22:00,47.9,47.0,29.83,NE,53,5.0,13.0,97,0.05,,,0.45,VWS V14.01,2013-06-04 16:22:00,
2013-06-04 11:27:00,47.9,47.0,29.83,NE,42,7.0,13.0,97,0.06,,,0.46,VWS V14.01,2013-06-04 16:27:00,
2013-06-04 11:30:00,47.7,46.8,29.83,ENE,71,11.0,14.0,97,0.04,,,0.41,VWS V14.01,2013-06-04 16:30:00,
2013-06-04 11:32:00,47.8,46.9,29.83,NE,39,5.0,13.0,97,0.05,,,0.46,VWS V14.01,2013-06-04 16:32:00,
2013-06-04 11:37:00,47.8,46.9,29.83,NE,50,12.0,13.0,97,0.06,,,0.47,VWS V14.01,2013-06-04 16:37:00,
2013-06-04 11:42:00,47.7,46.8,29.83,NE,44,7.0,16.0,97,0.08,,,0.49,VWS V14.01,2013-06-04 16:42:00,
2013-06-04 11:45:00,47.8,46.9,29.83,ENE,75,9.0,16.0,97,0.04,,,0.42,VWS V14.01,2013-06-04 16:45:00,
2013-06-04 11:47:00,47.8,46.9,29.83,NE,34,3.0,15.0,97,0.08,,,0.50,VWS V14.01,2013-06-04 16:47:00,
2013-06-04 11:52:00,47.8,46.9,29.83,NE,44,5.0,15.0,97,0.09,,,0.51,VWS V14.01,2013-06-04 16:52:00,
2013-06-04 11:57:00,47.9,47.0,29.83,NNE,21,6.0,15.0,97,0.10,,,0.52,VWS V14.01,2013-06-04 16:57:00,
2013-06-04 12:00:00,47.8,46.9,29.83,NE,38,7.0,16.0,97,0.05,,,0.43,VWS V14.01,2013-06-04 17:00:00,
2013-06-04 12:02:00,47.8,46.9,29.84,NNE,33,6.0,12.0,97,0.10,,,0.53,VWS V14.01,2013-06-04 17:02:00,
2013-06-04 12:07:00,47.7,46.8,29.84,NNE,32,10.0,12.0,97,0.11,,,0.54,VWS V14.01,2013-06-04 17:07:00,
2013-06-04 12:12:00,47.7,46.8,29.84,North,355,6.0,14.0,97,0.13,,,0.56,VWS V14.01,2013-06-04 17:12:00,
2013-06-04 12:15:00,47.9,47.0,29.83,NE,43,7.0,16.0,97,0.05,,,0.44,VWS V14.01,2013-06-04 17:15:00,
2013-06-04 12:17:00,47.7,46.8,29.84,North,360,2.0,8.0,97,0.14,,,0.58,VWS V14.01,2013-06-04 17:17:00,
2013-06-04 12:22:00,47.6,46.7,29.84,NNE,28,2.0,12.0,97,0.15,,,0.59,VWS V14.01,2013-06-04 17:22:00,
2013-06-04 12:27:00,47.6,46.7,29.84,NE,40,2.0,13.0,97,0.17,,,0.61,VWS V14.01,2013-06-04 17:27:00,
2013-06-04 12:30:00,47.9,47.0,29.83,ENE,61,13.0,17.0,97,0.06,,,0.46,VWS V14.01,2013-06-04 17:30:00,
2013-06-04 12:32:00,47.5,46.6,29.84,NNE,25,4.0,11.0,97,0.17,,,0.63,VWS V14.01,2013-06-04 17:32:00,
2013-06-04 12:37:00,47.5,46.6,29.84,NNE,28,2.0,11.0,97,0.18,,,0.64,VWS V14.01,2013-06-04 17:37:00,
2013-06-04 12:42:00,47.5,46.6,29.84,NNE,22,6.0,11.0,97,0.19,,,0.65,VWS V14.01,2013-06-04 17:42:00,
2013-06-04 12:45:00,47.8,46.9,29.83,NNE,13,3.0,16.0,97,0.09,,,0.50,VWS V14.01,2013-06-04 17:45:00,
2013-06-04 12:47:00,47.6,46.7,29.84,NNE,26,2.0,9.0,97,0.16,,,0.66,VWS V14.01,2013-06-04 17:47:00,
2013-06-04 12:52:00,47.6,46.7,29.84,NNE,20,6.0,11.0,97,0.17,,,0.67,VWS V14.01,2013-06-04 17:52:00,
2013-06-04 12:57:00,47.7,46.8,29.84,North,5,2.0,11.0,97,0.18,,,0.68,VWS V14.01,2013-06-04 17:57:00,
2013-06-04 13:00:00,47.8,46.9,29.84,NE,56,6.0,15.0,97,0.10,,,0.52,VWS V14.01,2013-06-04 18:00:00,
2013-06-04 13:02:00,47.7,46.8,29.84,NNE,18,3.0,10.0,97,0.16,,,0.68,VWS V14.01,2013-06-04 18:02:00,
2013-06-04 13:07:00,47.8,46.9,29.84,NNE,33,10.0,11.0,97,0.17,,,0.69,VWS V14.01,2013-06-04 18:07:00,
2013-06-04 13:12:00,47.8,46.9,29.84,NNE,33,1.0,12.0,97,0.18,,,0.70,VWS V14.01,2013-06-04 18:12:00,
2013-06-04 13:15:00,47.7,46.8,29.84,NE,38,6.0,14.0,97,0.14,,,0.57,VWS V14.01,2013-06-04 18:15:00,
2013-06-04 13:17:00,47.8,46.9,29.84,NNE,22,6.0,10.0,97,0.13,,,0.70,VWS V14.01,2013-06-04 18:17:00,
2013-06-04 13:22:00,47.7,46.8,29.85,NNE,16,11.0,13.0,97,0.14,,,0.71,VWS V14.01,2013-06-04 18:22:00,
2013-06-04 13:27:00,47.7,46.8,29.85,NNE,32,10.0,15.0,97,0.15,,,0.72,VWS V14.01,2013-06-04 18:27:00,
2013-06-04 13:30:00,47.6,46.7,29.84,NE,52,6.0,13.0,97,0.18,,,0.62,VWS V14.01,2013-06-04 18:30:00,
2013-06-04 13:32:00,47.7,46.8,29.85,NE,35,6.0,12.0,97,0.11,,,0.73,VWS V14.01,2013-06-04 18:32:00,
2013-06-04 13:37:00,47.7,46.8,29.85,NE,48,10.0,12.0,97,0.12,,,0.74,VWS V14.01,2013-06-04 18:37:00,
2013-06-04 13:42:00,47.7,46.8,29.85,NNE,19,2.0,13.0,97,0.14,,,0.76,VWS V14.01,2013-06-04 18:42:00,
2013-06-04 13:45:00,47.6,46.7,29.84,North,5,4.0,15.0,97,0.20,,,0.66,VWS V14.01,2013-06-04 18:45:00,
2013-06-04 13:47:00,47.8,46.9,29.85,NE,36,1.0,11.0,97,0.12,,,0.78,VWS V14.01,2013-06-04 18:47:00,
2013-06-04 13:52:00,47.8,46.9,29.85,NNW,334,4.0,11.0,97,0.13,,,0.79,VWS V14.01,2013-06-04 18:52:00,
2013-06-04 13:57:00,47.8,46.9,29.85,NNE,28,5.0,13.0,97,0.14,,,0.80,VWS V14.01,2013-06-04 18:57:00,
2013-06-04 14:00:00,47.7,46.8,29.85,NE,44,5.0,11.0,97,0.18,,,0.68,VWS V14.01,2013-06-04 19:00:00,
2013-06-04 14:02:00,47.8,46.9,29.85,ENE,69,4.0,8.0,97,0.12,,,0.80,VWS V14.01,2013-06-04 19:02:00,
2013-06-04 14:07:00,47.8,46.9,29.85,NNE,28,5.0,14.0,97,0.14,,,0.82,VWS V14.01,2013-06-04 19:07:00,
2013-06-04 14:12:00,47.8,46.9,29.85,NNE,15,2.0,14.0,97,0.14,,,0.82,VWS V14.01,2013-06-04 19:12:00,
2013-06-04 14:15:00,47.8,46.9,29.84,NE,40,9.0,13.0,97,0.18,,,0.70,VWS V14.01,2013-06-04 19:15:00,
2013-06-04 14:17:00,47.9,47.3,29.85,North,355,3.0,12.0,98,0.14,,,0.84,VWS V14.01,2013-06-04 19:17:00,
2013-06-04 14:22:00,47.9,47.3,29.85,NNE,13,6.0,14.0,98,0.14,,,0.84,VWS V14.01,2013-06-04 19:22:00,
2013-06-04 14:27:00,47.9,47.0,29.85,NNE,19,4.0,14.0,97,0.15,,,0.85,VWS V14.01,2013-06-04 19:27:00,
2013-06-04 14:30:00,47.7,46.8,29.85,NNE,25,2.0,15.0,97,0.15,,,0.72,VWS V14.01,2013-06-04 19:30:00,
2013-06-04 14:32:00,47.8,46.9,29.85,NE,51,6.0,11.0,97,0.14,,,0.86,VWS V14.01,2013-06-04 19:32:00,
2013-06-04 14:37:00,47.8,46.9,29.85,NE,34,4.0,11.0,97,0.16,,,0.88,VWS V14.01,2013-06-04 19:37:00,
2013-06-04 14:42:00,47.8,46.9,29.85,NE,49,4.0,12.0,97,0.18,,,0.90,VWS V14.01,2013-06-04 19:42:00,
2013-06-04 14:45:00,47.8,46.9,29.85,NNE,28,8.0,13.0,97,0.15,,,0.77,VWS V14.01,2013-06-04 19:45:00,
2013-06-04 14:47:00,47.7,47.1,29.85,NNE,14,1.0,11.0,98,0.15,,,0.92,VWS V14.01,2013-06-04 19:47:00,
2013-06-04 14:52:00,47.7,47.1,29.85,NE,38,3.0,11.0,98,0.17,,,0.94,VWS V14.01,2013-06-04 19:52:00,
2013-06-04 14:57:00,47.8,47.2,29.86,NW,326,2.0,13.0,98,0.19,,,0.96,VWS V14.01,2013-06-04 19:57:00,
2013-06-04 15:00:00,47.8,46.9,29.85,North,9,4.0,13.0,97,0.14,,,0.80,VWS V14.01,2013-06-04 20:00:00,
2013-06-04 15:02:00,47.7,47.1,29.86,North,11,5.0,10.0,98,0.17,,,0.97,VWS V14.01,2013-06-04 20:02:00,
2013-06-04 15:07:00,47.8,47.2,29.86,NE,51,4.0,10.0,98,0.18,,,0.98,VWS V14.01,2013-06-04 20:07:00,
2013-06-04 15:12:00,47.8,47.2,29.86,North,350,3.0,12.0,98,0.20,,,1.00,VWS V14.01,2013-06-04 20:12:00,
2013-06-04 15:15:00,47.9,47.3,29.85,NNE,15,8.0,14.0,98,0.15,,,0.83,VWS V14.01,2013-06-04 20:15:00,
2013-06-04 15:17:00,47.9,47.3,29.86,NNW,346,2.0,8.0,98,0.17,,,1.00,VWS V14.01,2013-06-04 20:17:00,
2013-06-04 15:22:00,47.9,47.3,29.86,NNE,26,14.0,14.0,98,0.18,,,1.01,VWS V14.01,2013-06-04 20:22:00,
2013-06-04 15:27:00,48.1,47.5,29.86,NNE,24,3.0,15.0,98,0.19,,,1.02,VWS V14.01,2013-06-04 20:27:00,
2013-06-04 15:30:00,47.8,46.9,29.85,NNW,340,4.0,14.0,97,0.16,,,0.86,VWS V14.01,2013-06-04 20:30:00,
2013-06-04 15:32:00,48.3,47.7,29.86,NNE,17,6.0,7.0,98,0.16,,,1.02,VWS V14.01,2013-06-04 20:32:00,
2013-06-04 15:37:00,48.4,47.8,29.87,NNE,29,7.0,13.0,98,0.16,,,1.02,VWS V14.01,2013-06-04 20:37:00,
2013-06-04 15:42:00,48.5,47.9,29.87,NW,323,6.0,14.0,98,0.16,,,1.02,VWS V14.01,2013-06-04 20:42:00,
2013-06-04 15:45:00,47.7,46.8,29.85,NNE,31,7.0,12.0,97,0.19,,,0.91,VWS V14.01,2013-06-04 20:45:00,
2013-06-04 15:47:00,48.5,47.9,29.87,North,5,2.0,10.0,98,0.12,,,1.03,VWS V14.01,2013-06-04 20:47:00,
2013-06-04 15:52:00,48.5,47.9,29.87,North,11,13.0,13.0,98,0.12,,,1.03,VWS V14.01,2013-06-04 20:52:00,
2013-06-04 15:57:00,48.4,47.8,29.87,NNE,24,6.0,14.0,98,0.13,,,1.04,VWS V14.01,2013-06-04 20:57:00,
2013-06-04 16:00:00,47.7,47.1,29.86,NNW,346,5.0,13.0,98,0.19,,,0.96,VWS V14.01,2013-06-04 21:00:00,
2013-06-04 16:02:00,48.6,48.0,29.87,NE,38,4.0,13.0,98,0.08,,,1.04,VWS V14.01,2013-06-04 21:02:00,
2013-06-04 16:07:00,48.7,48.1,29.87,NNE,16,5.0,13.0,98,0.08,,,1.04,VWS V14.01,2013-06-04 21:07:00,
2013-06-04 16:12:00,48.8,48.2,29.88,NNE,22,3.0,14.0,98,0.09,,,1.05,VWS V14.01,2013-06-04 21:12:00,
2013-06-04 16:15:00,47.8,47.2,29.86,NNW,342,1.0,12.0,98,0.20,,,1.00,VWS V14.01,2013-06-04 21:15:00,
2013-06-04 16:17:00,48.8,48.2,29.88,North,360,3.0,9.0,98,0.05,,,1.05,VWS V14.01,2013-06-04 21:17:00,
2013-06-04 16:22:00,48.7,48.1,29.88,ENE,59,2.0,12.0,98,0.06,,,1.06,VWS V14.01,2013-06-04 21:22:00,
2013-06-04 16:27:00,48.7,48.1,29.88,NNE,16,3.0,14.0,98,0.07,,,1.07,VWS V14.01,2013-06-04 21:27:00,
2013-06-04 16:30:00,48.2,47.6,29.86,NNW,339,0.0,15.0,98,0.19,,,1.02,VWS V14.01,2013-06-04 21:30:00,
2013-06-04 16:32:00,48.7,48.1,29.88,NNE,20,6.0,9.0,98,0.06,,,1.08,VWS V14.01,2013-06-04 21:32:00,
2013-06-04 16:37:00,48.7,48.1,29.88,NE,38,4.0,13.0,98,0.06,,,1.08,VWS V14.01,2013-06-04 21:37:00,
2013-06-04 16:42:00,48.8,48.2,29.88,NE,40,3.0,16.0,98,0.06,,,1.08,VWS V14.01,2013-06-04 21:42:00,
2013-06-04 16:45:00,48.5,47.9,29.87,NNE,30,10.0,14.0,98,0.17,,,1.03,VWS V14.01,2013-06-04 21:45:00,
2013-06-04 16:47:00,48.8,48.2,29.88,NNW,336,4.0,11.0,98,0.06,,,1.09,VWS V14.01,2013-06-04 21:47:00,
2013-06-04 16:52:00,48.8,48.2,29.89,WNW,299,3.0,13.0,98,0.07,,,1.10,VWS V14.01,2013-06-04 21:52:00,
2013-06-04 16:57:00,49.0,48.4,29.89,North,9,3.0,13.0,98,0.07,,,1.10,VWS V14.01,2013-06-04 21:57:00,
2013-06-04 17:00:00,48.5,47.9,29.87,North,355,3.0,14.0,98,0.13,,,1.04,VWS V14.01,2013-06-04 22:00:00,
2013-06-04 17:02:00,49.0,48.4,29.89,North,5,8.0,11.0,98,0.06,,,1.10,VWS V14.01,2013-06-04 22:02:00,
2013-06-04 17:07:00,48.9,48.3,29.89,NNE,30,5.0,14.0,98,0.06,,,1.10,VWS V14.01,2013-06-04 22:07:00,
2013-06-04 17:12:00,48.6,48.0,29.89,NE,42,4.0,16.0,98,0.06,,,1.10,VWS V14.01,2013-06-04 22:12:00,
2013-06-04 17:15:00,48.8,48.2,29.88,NE,40,2.0,14.0,98,0.09,,,1.05,VWS V14.01,2013-06-04 22:15:00,
2013-06-04 17:17:00,48.7,47.8,29.89,North,350,4.0,12.0,97,0.05,,,1.10,VWS V14.01,2013-06-04 22:17:00,
2013-06-04 17:22:00,48.8,48.2,29.90,NW,319,4.0,12.0,98,0.05,,,1.10,VWS V14.01,2013-06-04 22:22:00,
2013-06-04 17:27:00,48.5,47.6,29.90,NE,36,5.0,16.0,97,0.05,,,1.10,VWS V14.01,2013-06-04 22:27:00,
2013-06-04 17:30:00,48.7,48.1,29.88,NE,36,3.0,14.0,98,0.08,,,1.08,VWS V14.01,2013-06-04 22:30:00,
2013-06-04 17:32:00,48.7,47.8,29.90,NNE,32,2.0,7.0,97,0.02,,,1.10,VWS V14.01,2013-06-04 22:32:00,
2013-06-04 17:37:00,49.0,48.4,29.90,NNW,346,7.0,14.0,98,0.02,,,1.10,VWS V14.01,2013-06-04 22:37:00,
2013-06-04 17:42:00,48.9,48.0,29.90,NE,44,4.0,16.0,97,0.02,,,1.10,VWS V14.01,2013-06-04 22:42:00,
2013-06-04 17:45:00,48.8,48.2,29.88,NNW,343,6.0,16.0,98,0.07,,,1.09,VWS V14.01,2013-06-04 22:45:00,
2013-06-04 17:47:00,48.9,48.0,29.90,NNE,31,12.0,12.0,97,0.01,,,1.10,VWS V14.01,2013-06-04 22:47:00,
2013-06-04 17:52:00,48.6,47.7,29.90,NNE,26,7.0,19.0,97,0.01,,,1.10,VWS V14.01,2013-06-04 22:52:00,
2013-06-04 17:57:00,48.5,47.6,29.90,NNE,24,3.0,19.0,97,0.01,,,1.10,VWS V14.01,2013-06-04 22:57:00,
2013-06-04 18:00:00,49.0,48.4,29.89,NE,47,2.0,13.0,98,0.07,,,1.10,VWS V14.01,2013-06-04 23:00:00,
2013-06-04 18:02:00,48.6,47.7,29.90,NE,39,3.0,10.0,97,0.01,,,1.11,VWS V14.01,2013-06-04 23:02:00,
2013-06-04 18:07:00,48.6,47.7,29.90,NE,36,4.0,13.0,97,0.01,,,1.11,VWS V14.01,2013-06-04 23:07:00,
2013-06-04 18:12:00,48.6,47.7,29.90,NE,38,3.0,17.0,97,0.02,,,1.12,VWS V14.01,2013-06-04 23:12:00,
2013-06-04 18:15:00,48.7,47.8,29.89,ENE,58,2.0,16.0,97,0.06,,,1.10,VWS V14.01,2013-06-04 23:15:00,
2013-06-04 18:17:00,48.5,47.6,29.90,NE,53,6.0,14.0,97,0.02,,,1.12,VWS V14.01,2013-06-04 23:17:00,
2013-06-04 18:22:00,48.5,47.6,29.90,NE,46,3.0,14.0,97,0.02,,,1.12,VWS V14.01,2013-06-04 23:22:00,
2013-06-04 18:27:00,48.5,47.6,29.90,NNE,32,2.0,14.0,97,0.02,,,1.12,VWS V14.01,2013-06-04 23:27:00,
2013-06-04 18:30:00,48.6,47.7,29.89,North,355,3.0,16.0,97,0.05,,,1.10,VWS V14.01,2013-06-04 23:30:00,
2013-06-04 18:32:00,48.5,47.6,29.90,North,5,3.0,7.0,97,0.02,,,1.12,VWS V14.01,2013-06-04 23:32:00,
2013-06-04 18:37:00,48.6,47.7,29.90,North,351,3.0,9.0,97,0.02,,,1.12,VWS V14.01,2013-06-04 23:37:00,
2013-06-04 18:42:00,48.7,47.8,29.91,NNE,24,4.0,11.0,97,0.02,,,1.12,VWS V14.01,2013-06-04 23:42:00,
2013-06-04 18:45:00,48.9,48.0,29.90,North,5,5.0,16.0,97,0.02,,,1.10,VWS V14.01,2013-06-04 23:45:00,
2013-06-04 18:47:00,48.8,47.9,29.91,NNW,344,4.0,7.0,97,0.02,,,1.12,VWS V14.01,2013-06-04 23:47:00,
2013-06-04 18:52:00,48.8,47.9,29.91,NNE,27,4.0,12.0,97,0.02,,,1.12,VWS V14.01,2013-06-04 23:52:00,
2013-06-04 18:57:00,48.9,48.0,29.91,NE,34,0.0,12.0,97,0.02,,,1.12,VWS V14.01,2013-06-04 23:57:00,
2013-06-04 19:00:00,48.5,47.6,29.90,NE,36,3.0,19.0,97,0.01,,,1.10,VWS V14.01,2013-06-05 00:00:00,
2013-06-04 19:02:00,48.9,48.0,29.91,NNE,21,0.0,0.0,97,0.02,,,1.12,VWS V14.01,2013-06-05 00:02:00,
2013-06-04 19:07:00,49.0,48.1,29.91,NE,53,0.0,0.0,97,0.03,,,1.13,VWS V14.01,2013-06-05 00:07:00,
2013-06-04 19:12:00,49.0,48.1,29.91,NNE,12,0.0,0.0,97,0.03,,,1.13,VWS V14.01,2013-06-05 00:12:00,
2013-06-04 19:15:00,48.5,47.6,29.90,NNW,340,14.0,17.0,97,0.02,,,1.12,VWS V14.01,2013-06-05 00:15:00,
2013-06-04 19:17:00,48.9,48.0,29.92,NNE,22,0.0,0.0,97,0.01,,,1.13,VWS V14.01,2013-06-05 00:17:00,
2013-06-04 19:22:00,48.8,47.9,29.91,NNE,17,0.0,0.0,97,0.01,,,1.13,VWS V14.01,2013-06-05 00:22:00,
2013-06-04 19:27:00,48.7,47.8,29.92,NNW,342,0.0,0.0,97,0.01,,,1.13,VWS V14.01,2013-06-05 00:27:00,
2013-06-04 19:30:00,48.5,47.6,29.90,North,360,5.0,14.0,97,0.02,,,1.12,VWS V14.01,2013-06-05 00:30:00,
2013-06-04 19:32:00,48.6,47.7,29.92,NNE,22,0.0,0.0,97,0.01,,,1.13,VWS V14.01,2013-06-05 00:32:00,
2013-06-04 19:37:00,48.6,47.7,29.92,ENE,59,0.0,0.0,97,0.01,,,1.13,VWS V14.01,2013-06-05 00:37:00,
2013-06-04 19:42:00,48.5,47.6,29.92,NNE,26,0.0,0.0,97,0.01,,,1.13,VWS V14.01,2013-06-05 00:42:00,
2013-06-04 19:45:00,48.8,47.9,29.91,NE,39,5.0,15.0,97,0.02,,,1.12,VWS V14.01,2013-06-05 00:45:00,
2013-06-04 19:47:00,48.6,47.7,29.92,NE,42,0.0,0.0,97,0.01,,,1.13,VWS V14.01,2013-06-05 00:47:00,
2013-06-04 19:52:00,48.7,47.8,29.92,North,5,0.0,0.0,97,0.01,,,1.13,VWS V14.01,2013-06-05 00:52:00,
2013-06-04 19:57:00,48.7,47.8,29.93,NNE,14,0.0,0.0,97,0.01,,,1.13,VWS V14.01,2013-06-05 00:57:00,
2013-06-04 20:00:00,48.9,48.0,29.91,NNE,26,0.0,12.0,97,0.02,,,1.12,VWS V14.01,2013-06-05 01:00:00,
2013-06-04 20:02:00,48.7,47.8,29.93,North,360,0.0,0.0,97,0.02,,,1.14,VWS V14.01,2013-06-05 01:02:00,
2013-06-04 20:07:00,48.8,47.9,29.93,NNE,25,0.0,0.0,97,0.02,,,1.14,VWS V14.01,2013-06-05 01:07:00,
2013-06-04 20:12:00,49.0,48.1,29.93,NE,34,0.0,0.0,97,0.02,,,1.14,VWS V14.01,2013-06-05 01:12:00,
2013-06-04 20:15:00,48.9,48.0,29.91,North,5,0.0,0.0,97,0.03,,,1.13,VWS V14.01,2013-06-05 01:15:00,
2013-06-04 20:17:00,49.1,48.2,29.93,NNW,340,0.0,0.0,97,0.01,,,1.14,VWS V14.01,2013-06-05 01:17:00,
2013-06-04 20:22:00,49.1,48.2,29.93,NNE,22,0.0,0.0,97,0.01,,,1.14,VWS V14.01,2013-06-05 01:22:00,
2013-06-04 20:27:00,49.1,48.2,29.93,NE,38,0.0,0.0,97,0.01,,,1.14,VWS V14.01,2013-06-05 01:27:00,
2013-06-04 20:30:00,48.7,47.8,29.92,NNE,28,0.0,0.0,97,0.01,,,1.13,VWS V14.01,2013-06-05 01:30:00,
2013-06-04 20:32:00,49.0,48.1,29.93,North,355,0.0,0.0,97,0.01,,,1.14,VWS V14.01,2013-06-05 01:32:00,
2013-06-04 20:37:00,49.0,48.1,29.93,NNW,343,0.0,0.0,97,0.01,,,1.14,VWS V14.01,2013-06-05 01:37:00,
2013-06-04 20:42:00,49.0,48.1,29.94,NNE,30,0.0,0.0,97,0.01,,,1.14,VWS V14.01,2013-06-05 01:42:00,
2013-06-04 20:45:00,48.6,47.7,29.92,NNE,22,0.0,0.0,97,0.01,,,1.13,VWS V14.01,2013-06-05 01:45:00,
2013-06-04 20:47:00,49.1,48.2,29.94,WNW,296,0.0,0.0,97,0.01,,,1.14,VWS V14.01,2013-06-05 01:47:00,
2013-06-04 20:52:00,49.2,48.3,29.94,NE,53,0.0,0.0,97,0.01,,,1.14,VWS V14.01,2013-06-05 01:52:00,
2013-06-04 20:57:00,49.1,48.2,29.94,NNE,26,0.0,0.0,97,0.02,,,1.15,VWS V14.01,2013-06-05 01:57:00,
2013-06-04 21:00:00,48.7,47.8,29.93,NNE,26,0.0,0.0,97,0.01,,,1.13,VWS V14.01,2013-06-05 02:00:00,
2013-06-04 21:02:00,49.0,47.8,29.94,North,5,0.0,0.0,96,0.02,,,1.15,VWS V14.01,2013-06-05 02:02:00,
2013-06-04 21:07:00,49.0,47.8,29.94,North,355,0.0,0.0,96,0.02,,,1.15,VWS V14.01,2013-06-05 02:07:00,
2013-06-04 21:12:00,48.9,47.7,29.94,North,349,0.0,0.0,96,0.02,,,1.15,VWS V14.01,2013-06-05 02:12:00,
2013-06-04 21:15:00,49.0,48.1,29.93,NNW,346,0.0,0.0,97,0.02,,,1.14,VWS V14.01,2013-06-05 02:15:00,
2013-06-04 21:17:00,49.0,47.8,29.94,NNE,20,0.0,0.0,96,0.01,,,1.15,VWS V14.01,2013-06-05 02:17:00,
2013-06-04 21:22:00,49.0,48.1,29.94,NNE,28,0.0,0.0,97,0.01,,,1.15,VWS V14.01,2013-06-05 02:22:00,
2013-06-04 21:27:00,49.0,48.1,29.94,NW,321,0.0,0.0,97,0.01,,,1.15,VWS V14.01,2013-06-05 02:27:00,
2013-06-04 21:30:00,49.1,48.2,29.94,North,355,0.0,0.0,97,0.01,,,1.14,VWS V14.01,2013-06-05 02:30:00,
2013-06-04 21:32:00,49.1,47.9,29.94,NNE,27,0.0,0.0,96,0.01,,,1.15,VWS V14.01,2013-06-05 02:32:00,
2013-06-04 21:37:00,49.0,47.8,29.94,NNE,18,0.0,0.0,96,0.01,,,1.15,VWS V14.01,2013-06-05 02:37:00,
2013-06-04 21:42:00,49.0,47.8,29.95,NNE,32,0.0,0.0,96,0.01,,,1.15,VWS V14.01,2013-06-05 02:42:00,
2013-06-04 21:45:00,49.1,48.2,29.94,NE,36,0.0,0.0,97,0.01,,,1.14,VWS V14.01,2013-06-05 02:45:00,
2013-06-04 21:47:00,49.0,47.8,29.95,NNE,26,0.0,0.0,96,0.01,,,1.15,VWS V14.01,2013-06-05 02:47:00,
2013-06-04 21:52:00,49.0,47.8,29.95,NE,37,0.0,0.0,96,0.01,,,1.15,VWS V14.01,2013-06-05 02:52:00,
2013-06-04 21:57:00,49.0,47.8,29.95,NNW,332,0.0,0.0,96,0.01,,,1.15,VWS V14.01,2013-06-05 02:57:00,
2013-06-04 22:00:00,49.0,47.8,29.94,NW,309,0.0,0.0,96,0.02,,,1.15,VWS V14.01,2013-06-05 03:00:00,
2013-06-04 22:02:00,49.0,47.8,29.95,NW,325,0.0,0.0,96,0.00,,,1.15,VWS V14.01,2013-06-05 03:02:00,
2013-06-04 22:07:00,49.0,47.8,29.95,North,355,0.0,0.0,96,0.00,,,1.15,VWS V14.01,2013-06-05 03:07:00,
2013-06-04 22:12:00,49.1,47.9,29.96,NNW,348,0.0,0.0,96,0.00,,,1.15,VWS V14.01,2013-06-05 03:12:00,
2013-06-04 22:15:00,49.0,47.8,29.94,North,5,0.0,0.0,96,0.02,,,1.15,VWS V14.01,2013-06-05 03:15:00,
2013-06-04 22:17:00,49.1,47.9,29.96,NNE,15,0.0,0.0,96,0.00,,,1.15,VWS V14.01,2013-06-05 03:17:00,
2013-06-04 22:22:00,49.1,47.9,29.96,NE,44,0.0,0.0,96,0.00,,,1.15,VWS V14.01,2013-06-05 03:22:00,
2013-06-04 22:27:00,49.1,47.9,29.96,NNW,336,0.0,0.0,96,0.00,,,1.15,VWS V14.01,2013-06-05 03:27:00,
2013-06-04 22:30:00,49.1,48.2,29.94,NW,306,0.0,0.0,97,0.01,,,1.15,VWS V14.01,2013-06-05 03:30:00,
2013-06-04 22:32:00,49.1,47.9,29.96,NNW,331,0.0,0.0,96,0.00,,,1.15,VWS V14.01,2013-06-05 03:32:00,
2013-06-04 22:37:00,49.0,47.8,29.96,NW,323,0.0,0.0,96,0.00,,,1.15,VWS V14.01,2013-06-05 03:37:00,
2013-06-04 22:42:00,49.0,47.8,29.96,NNE,22,0.0,0.0,96,0.00,,,1.15,VWS V14.01,2013-06-05 03:42:00,
2013-06-04 22:45:00,48.9,47.7,29.95,NE,36,0.0,0.0,96,0.01,,,1.15,VWS V14.01,2013-06-05 03:45:00,
2013-06-04 22:47:00,49.0,47.8,29.96,NNW,329,0.0,0.0,96,0.01,,,1.16,VWS V14.01,2013-06-05 03:47:00,
2013-06-04 22:52:00,49.1,47.9,29.96,NW,323,0.0,0.0,96,0.01,,,1.16,VWS V14.01,2013-06-05 03:52:00,
2013-06-04 22:57:00,49.0,47.8,29.96,North,355,0.0,0.0,96,0.01,,,1.16,VWS V14.01,2013-06-05 03:57:00,
2013-06-04 23:00:00,49.0,47.8,29.95,NNE,24,0.0,0.0,96,0.01,,,1.15,VWS V14.01,2013-06-05 04:00:00,
2013-06-04 23:01:00,49.0,47.8,29.96,NNW,340,0.0,0.0,96,0.01,,,1.16,VWS V14.01,2013-06-05 04:01:00,
2013-06-04 23:06:00,49.1,47.9,29.96,NW,318,0.0,0.0,96,0.01,,,1.16,VWS V14.01,2013-06-05 04:06:00,
2013-06-04 23:11:00,49.0,47.8,29.96,NE,49,0.0,0.0,96,0.01,,,1.16,VWS V14.01,2013-06-05 04:11:00,
2013-06-04 23:15:00,49.0,47.8,29.96,NNE,31,0.0,0.0,96,0.00,,,1.15,VWS V14.01,2013-06-05 04:15:00,
2013-06-04 23:16:00,49.0,47.5,29.96,North,355,0.0,0.0,95,0.01,,,1.16,VWS V14.01,2013-06-05 04:16:00,
2013-06-04 23:21:00,49.0,47.5,29.96,NW,311,0.0,0.0,95,0.01,,,1.16,VWS V14.01,2013-06-05 04:21:00,
2013-06-04 23:26:00,49.0,47.5,29.96,NW,314,0.0,0.0,95,0.01,,,1.16,VWS V14.01,2013-06-05 04:26:00,
2013-06-04 23:30:00,49.1,47.9,29.96,NNW,331,0.0,0.0,96,0.00,,,1.15,VWS V14.01,2013-06-05 04:30:00,
2013-06-04 23:31:00,49.0,47.5,29.96,NNW,336,0.0,0.0,95,0.01,,,1.16,VWS V14.01,2013-06-05 04:31:00,
2013-06-04 23:36:00,49.0,47.5,29.96,NNW,337,0.0,0.0,95,0.01,,,1.16,VWS V14.01,2013-06-05 04:36:00,
2013-06-04 23:41:00,48.9,47.5,29.96,NW,315,0.0,0.0,95,0.01,,,1.16,VWS V14.01,2013-06-05 04:41:00,
2013-06-04 23:45:00,49.1,47.9,29.96,NNW,327,0.0,0.0,96,0.00,,,1.15,VWS V14.01,2013-06-05 04:45:00,
2013-06-04 23:46:00,48.9,47.5,29.96,NNW,331,0.0,0.0,95,0.01,,,1.16,VWS V14.01,2013-06-05 04:46:00,
2013-06-04 23:51:00,48.9,47.5,29.96,NNW,344,0.0,0.0,95,0.01,,,1.16,VWS V14.01,2013-06-05 04:51:00,
2013-06-04 23:56:00,48.9,47.5,29.97,North,5,0.0,0.0,95,0.01,,,1.16,VWS V14.01,2013-06-05 04:56:00,